{"data":{"norad_id":59350,"epoch":"2026-09-20T23:23:53.624544Z","epoch_age_seconds":121266,"freshness":"FRESH","line1":"1 59350U 24060C   26263.97492621 -.00003050  00000+0 -10140-3 0  9991","line2":"2 59350  43.0000 236.6023 0000480 161.9771 198.1098 15.27573541139938","mean_motion":15.27573541,"eccentricity":4.8e-5,"inclination_deg":43,"raan_deg":236.6023,"arg_perigee_deg":161.9771,"mean_anomaly_deg":198.1098,"bstar":-0.0001014,"rev_number":13993,"period_min":94.267147299326,"perigee_km":482.73909881645,"apogee_km":483.39777453838,"semimajor_km":6861.2054366774,"source":"CELESTRAK","updated_at":"2026-09-22T09:00:48.903139Z"}}